Weather History for Moncks Corner, SC

Change the Weather History Date:

Monday, October 8, 2012

  Actual Average (KCHS) Record (KCHS)
Temperature  
Mean Temperature 60 °F 69 °F  
Max Temperature 66 °F 79 °F 90 °F (1962)
Min Temperature 55 °F 60 °F 41 °F (1938)
Degree Days  
Heating Degree Days 4 1  
Month to date heating degree days 8  
Since 1 July heating degree days 11  
Cooling Degree Days 0 5  
Month to date cooling degree days 50  
Year to date cooling degree days 2188  
Growing Degree Days 10 (Base 50)    
Moisture  
Dew Point 56 °F    
Average Humidity 86    
Maximum Humidity 94    
Minimum Humidity 77    
Precipitation  
Precipitation 0.92 in 0.14 in 3.73 in (1996)
Month to date precipitation 1.22  
Year to date precipitation 42.96  
Sea Level Pressure  
Sea Level Pressure 30.08 in    
Wind  
Wind Speed 7 mph (NNE)    
Max Wind Speed 14 mph    
Max Gust Speed 17 mph    
Visibility 8 miles    
Events Rain , Thunderstorm    
T = Trace of Precipitation, MM = Missing Value Source: NWS Daily Summary

Daily Weather History Graph

Daily Weather History Graph

Search for Another Location

Airport:

Trip Planner

Search our weather history database for the weather conditions in past years. The results will help you decide how hot, cold, wet, or windy it might be!

Date:

Astronomy

Oct. 08, 2012 Rise Set
Actual Time 7:19 AM EDT 6:54 PM EDT
Civil Twilight 6:54 AM EDT 7:19 PM EDT
Nautical Twilight 6:26 AM EDT 7:48 PM EDT
Astronomical Twilight 5:57 AM EDT 8:16 PM EDT
Moon 12:17 AM EDT (10/8) 2:24 PM EDT (10/8)
Length of Visible Light 12h 24m
Length of Day
11h 35m
Waning Gibbous, 46% of the Moon is Illuminated
Oct 8
Waning Gibbous
Oct 15
New
Oct 21
First Quarter
Oct 29
Full
Nov 6
Last Quarter

Hourly Weather History & Observations

Time (EDT) Temp. Dew Point Humidity Pressure Visibility Wind Dir Wind Speed Gust Speed Precip Events Conditions
12:15 AM 66.2 °F 59.0 °F 78% 30.05 in 10.0 mi NNE 8.1 mph - N/A   Clear
12:35 AM 64.4 °F 59.0 °F 83% 30.06 in 10.0 mi NE 10.4 mph - N/A   Scattered Clouds
12:55 AM 64.4 °F 57.2 °F 77% 30.06 in 10.0 mi NNE 8.1 mph - N/A   Scattered Clouds
1:15 AM 64.4 °F 57.2 °F 77% 30.06 in 10.0 mi NNE 6.9 mph - N/A   Scattered Clouds
1:35 AM 62.6 °F 57.2 °F 82% 30.07 in 10.0 mi NE 5.8 mph - N/A   Mostly Cloudy
1:55 AM 62.6 °F 57.2 °F 82% 30.08 in 10.0 mi NNE 6.9 mph - N/A   Overcast
2:15 AM 62.6 °F 57.2 °F 82% 30.07 in 10.0 mi NNE 5.8 mph - N/A   Scattered Clouds
2:35 AM 62.6 °F 57.2 °F 82% 30.06 in 10.0 mi NNE 4.6 mph - N/A   Mostly Cloudy
2:55 AM 62.6 °F 57.2 °F 82% 30.05 in 10.0 mi NNE 3.5 mph - N/A Rain Light Rain
3:15 AM 62.6 °F 57.2 °F 82% 30.05 in 10.0 mi NNE 8.1 mph - N/A   Overcast
3:35 AM 62.6 °F 57.2 °F 82% 30.05 in 10.0 mi NNE 5.8 mph - N/A   Overcast
3:55 AM 62.6 °F 57.2 °F 82% 30.05 in 7.0 mi NNE 8.1 mph - N/A   Overcast
4:15 AM 62.6 °F 57.2 °F 82% 30.05 in 10.0 mi NNE 6.9 mph - N/A   Overcast
4:35 AM 62.6 °F 55.4 °F 77% 30.05 in 10.0 mi NE 10.4 mph - N/A   Scattered Clouds
4:55 AM 60.8 °F 55.4 °F 82% 30.07 in 10.0 mi NNE 8.1 mph - N/A   Mostly Cloudy
5:15 AM 60.8 °F 55.4 °F 82% 30.07 in 10.0 mi North 4.6 mph - N/A Rain Rain
5:35 AM 60.8 °F 55.4 °F 82% 30.06 in 7.0 mi NE 8.1 mph - 0.04 in Rain Heavy Rain
5:55 AM 59.0 °F 55.4 °F 88% 30.06 in 10.0 mi NNE 5.8 mph - 0.07 in Rain Light Rain
6:15 AM 59.0 °F 57.2 °F 94% 30.07 in 10.0 mi NE 3.5 mph - N/A   Overcast
6:35 AM 59.0 °F 57.2 °F 94% 30.07 in 10.0 mi NNE 3.5 mph - N/A   Overcast
6:55 AM 59.0 °F 55.4 °F 88% 30.08 in 10.0 mi NNE 4.6 mph - N/A   Overcast
7:15 AM 59.0 °F 55.4 °F 88% 30.08 in 10.0 mi NNE 5.8 mph - N/A   Overcast
7:35 AM 59.0 °F 55.4 °F 88% 30.10 in 10.0 mi NNE 5.8 mph - N/A   Overcast
7:55 AM 59.0 °F 55.4 °F 88% 30.10 in 10.0 mi NE 9.2 mph - N/A   Overcast
8:15 AM 59.0 °F 55.4 °F 88% 30.10 in 7.0 mi NE 5.8 mph - N/A   Overcast
8:35 AM 59.0 °F 55.4 °F 88% 30.11 in 10.0 mi NE 10.4 mph - N/A   Overcast
8:55 AM 59.0 °F 55.4 °F 88% 30.12 in 7.0 mi NE 9.2 mph - N/A   Overcast
9:15 AM 59.0 °F 55.4 °F 88% 30.11 in 10.0 mi NE 9.2 mph - N/A   Overcast
9:35 AM 59.0 °F 55.4 °F 88% 30.11 in 10.0 mi NNE 9.2 mph 16.1 mph N/A   Overcast
9:55 AM 60.8 °F 55.4 °F 82% 30.11 in 10.0 mi NE 8.1 mph - N/A   Overcast
10:15 AM 59.0 °F 55.4 °F 88% 30.11 in 5.0 mi NE 9.2 mph - N/A   Overcast
10:35 AM 59.0 °F 55.4 °F 88% 30.11 in 7.0 mi NE 8.1 mph - N/A   Overcast
10:55 AM 60.8 °F 55.4 °F 82% 30.11 in 7.0 mi NE 9.2 mph - N/A   Overcast
11:15 AM 60.8 °F 55.4 °F 82% 30.10 in 7.0 mi NE 6.9 mph - N/A   Overcast
11:35 AM 60.8 °F 57.2 °F 88% 30.10 in 10.0 mi NE 8.1 mph - N/A   Overcast
11:55 AM 60.8 °F 57.2 °F 88% 30.10 in 7.0 mi NNE 5.8 mph - N/A   Overcast
12:15 PM 62.6 °F 57.2 °F 82% 30.10 in 7.0 mi NNE 5.8 mph - N/A   Overcast
12:35 PM 62.6 °F 57.2 °F 82% 30.10 in 7.0 mi NNE 6.9 mph - N/A   Overcast
12:55 PM 62.6 °F 57.2 °F 82% 30.09 in 7.0 mi NNE 5.8 mph - N/A   Overcast
1:15 PM 62.6 °F 57.2 °F 82% 30.08 in 7.0 mi North 6.9 mph - N/A   Overcast
1:35 PM 62.6 °F 57.2 °F 82% 30.07 in 7.0 mi North 5.8 mph - N/A   Overcast
1:55 PM 62.6 °F 57.2 °F 82% 30.06 in 7.0 mi NE 6.9 mph - N/A   Overcast
2:15 PM 62.6 °F 57.2 °F 82% 30.05 in 7.0 mi North 6.9 mph - N/A   Overcast
2:35 PM 62.6 °F 59.0 °F 88% 30.03 in 7.0 mi North 5.8 mph - 0.03 in Rain Rain
2:55 PM 62.6 °F 59.0 °F 88% 30.04 in 7.0 mi North 8.1 mph - 0.04 in Rain Light Rain
3:15 PM 60.8 °F 59.0 °F 94% 30.05 in 7.0 mi North 4.6 mph - 0.01 in Rain Rain
3:35 PM 60.8 °F 57.2 °F 88% 30.04 in 4.0 mi North 9.2 mph - 0.10 in Rain Heavy Rain
3:55 PM 59.0 °F 57.2 °F 94% 30.05 in 7.0 mi North 5.8 mph - 0.23 in Rain Rain
4:15 PM 59.0 °F 57.2 °F 94% 30.04 in 10.0 mi North 10.4 mph - N/A Rain Light Rain
4:35 PM 59.0 °F 55.4 °F 88% 30.03 in 7.0 mi NE 11.5 mph - 0.02 in Rain Rain
4:55 PM 59.0 °F 55.4 °F 88% 30.05 in 7.0 mi North 5.8 mph - 0.05 in Rain Heavy Rain
5:15 PM 59.0 °F 55.4 °F 88% 30.03 in 1.0 mi NE 13.8 mph 17.3 mph 0.30 in Rain Heavy Rain
5:35 PM 59.0 °F 55.4 °F 88% 30.06 in 3.0 mi North 5.8 mph - 0.47 in Rain , Thunderstorm Heavy Thunderstorms and Rain
5:55 PM 59.0 °F 55.4 °F 88% 30.04 in 7.0 mi North 10.4 mph 16.1 mph 0.52 in Rain , Thunderstorm Rain
6:15 PM 59.0 °F 55.4 °F 88% 30.06 in 10.0 mi North 8.1 mph - 0.01 in Rain Light Rain
6:35 PM 57.2 °F 55.4 °F 94% 30.06 in 10.0 mi North 11.5 mph 17.3 mph 0.01 in Thunderstorm Overcast
6:55 PM 57.2 °F 53.6 °F 88% 30.07 in 10.0 mi North 10.4 mph 17.3 mph 0.01 in Thunderstorm Thunderstorm
7:15 PM 57.2 °F 53.6 °F 88% 30.07 in 7.0 mi North 10.4 mph - N/A Thunderstorm Overcast
7:35 PM 57.2 °F 53.6 °F 88% 30.08 in 10.0 mi NNE 6.9 mph - N/A Thunderstorm Overcast
7:55 PM 57.2 °F 53.6 °F 88% 30.08 in 10.0 mi NNE 8.1 mph - N/A Thunderstorm Overcast
8:15 PM 57.2 °F 53.6 °F 88% 30.09 in 10.0 mi NNE 5.8 mph - N/A   Overcast
8:35 PM 57.2 °F 53.6 °F 88% 30.09 in 10.0 mi North 8.1 mph - N/A   Overcast
8:55 PM 57.2 °F 53.6 °F 88% 30.09 in 10.0 mi North 6.9 mph - N/A   Overcast
9:15 PM 57.2 °F 53.6 °F 88% 30.09 in 10.0 mi North 9.2 mph - N/A   Overcast
9:35 PM 57.2 °F 53.6 °F 88% 30.09 in 10.0 mi North 10.4 mph 16.1 mph N/A   Overcast
9:55 PM 55.4 °F 51.8 °F 88% 30.10 in 10.0 mi NNE 8.1 mph 16.1 mph N/A   Overcast
10:15 PM 55.4 °F 51.8 °F 88% 30.11 in 10.0 mi NNE 9.2 mph 17.3 mph N/A   Overcast
10:35 PM 55.4 °F 51.8 °F 88% 30.11 in 7.0 mi NNE 6.9 mph - N/A   Overcast
10:55 PM 55.4 °F 51.8 °F 88% 30.11 in 10.0 mi NNE 6.9 mph - N/A   Overcast
11:15 PM 55.4 °F 53.6 °F 94% 30.11 in 7.0 mi NNE 5.8 mph - N/A   Overcast
11:55 PM 55.4 °F 53.6 °F 94% 30.10 in 7.0 mi North 10.4 mph - N/A   Overcast